KQ4DLB-13 Weather Reports


time (UTC)temp
F
wind
direction
speed
knots
gust
knots
rain 1hr
in
rain 24hr
in
rain mn
in
humidity
%
barometer
mb
20260504130502 59 283 4.3 12.2 0.00 0.09 0.00 65 989.6
20260504110502 54 219 2.6 6.1 0.00 0.09 0.00 70 988.3
20260504100503 54 209 4.3 6.1 0.00 0.09 0.00 70 988.3
20260504082002 51 203 2.6 6.1 0.00 0.09 0.00 76 988.5
20260504081502 51 200 3.5 7.0 0.00 0.09 0.00 76 988.5
20260504081001 51 186 3.5 6.1 0.00 0.09 0.00 76 988.6
20260504080502 51 188 2.6 7.8 0.00 0.09 0.00 76 988.6
20260504050502 51 211 4.3 7.8 0.00 0.09 0.00 72 989.8
20260504050002 50 187 5.2 9.6 0.00 0.09 0.00 75 989.8
20260504045502 49 188 4.3 7.8 0.00 0.09 0.00 77 989.8
20260504045002 49 190 3.5 8.7 0.00 0.09 0.00 78 989.8
20260504044502 49 175 3.5 6.1 0.00 0.09 0.00 78 989.9
20260504044001 48 186 3.5 6.1 0.00 0.09 0.00 79 989.9
20260504043503 48 179 3.5 6.1 0.00 0.09 0.00 79 990.0
20260504043001 48 183 3.5 5.2 0.00 0.09 0.00 80 990.0
20260504042502 48 187 3.5 5.2 0.00 0.09 0.00 81 990.1
20260504042002 48 199 3.5 5.2 0.00 0.09 0.00 81 990.1
20260504041502 48 193 3.5 6.1 0.00 0.09 0.00 81 990.1
20260504041002 48 185 3.5 5.2 0.00 0.09 0.00 81 990.2
20260504040502 48 198 3.5 6.1 0.00 0.09 0.00 81 990.1
20260504040001 48 183 3.5 5.2 0.00 0.09 0.00 81 990.1
20260504035502 49 225 2.6 3.5 0.00 0.09 0.00 80 990.2
20260504035002 49 225 3.5 4.3 0.00 0.09 0.00 81 990.3
20260504034502 49 225 3.5 4.3 0.00 0.09 0.00 80 990.3
20260504034002 49 225 2.6 4.3 0.00 0.09 0.00 79 990.3
20260504033502 49 216 3.5 5.2 0.00 0.09 0.00 79 990.4
20260504033002 50 189 3.5 5.2 0.00 0.09 0.00 79 990.4
20260504032502 50 184 4.3 5.2 0.00 0.09 0.00 78 990.4
20260504032002 50 183 4.3 5.2 0.00 0.09 0.00 77 990.4
20260504031502 50 182 4.3 6.1 0.00 0.09 0.00 77 990.4
20260504031001 50 180 4.3 6.1 0.00 0.09 0.00 77 990.4
20260504030502 51 180 4.3 5.2 0.00 0.09 0.00 76 990.3
20260504030002 51 181 4.3 5.2 0.00 0.09 0.00 76 990.3
20260504025502 51 181 4.3 6.1 0.00 0.09 0.00 75 990.2
20260504025002 51 183 4.3 5.2 0.00 0.09 0.00 74 990.1
20260504024502 52 181 4.3 5.2 0.00 0.09 0.00 74 990.1
20260504024002 52 182 4.3 5.2 0.00 0.09 0.00 73 990.1
20260504023502 52 180 4.3 6.1 0.00 0.09 0.00 73 990.1
20260504023002 52 181 4.3 5.2 0.00 0.09 0.00 73 990.1
20260504022502 53 180 4.3 5.2 0.00 0.09 0.00 72 989.9
20260504022002 53 181 4.3 5.2 0.00 0.09 0.00 72 989.8
20260504021502 53 182 4.3 5.2 0.00 0.09 0.00 73 989.7
20260504021002 53 183 4.3 6.1 0.00 0.09 0.00 72 989.6
20260504020502 53 179 4.3 6.1 0.00 0.09 0.00 71 989.7
20260504020002 53 181 4.3 6.1 0.00 0.09 0.00 70 989.7
20260504015502 53 182 4.3 6.1 0.00 0.09 0.00 69 989.8
20260504015001 53 186 5.2 6.1 0.00 0.08 0.00 69 989.6
20260504014503 54 169 4.3 6.1 0.00 0.07 0.00 68 989.6
20260504014002 54 170 3.5 5.2 0.00 0.05 0.00 68 989.7
20260504013502 54 179 4.3 6.1 0.00 0.03 0.00 67 989.8
20260504013003 55 173 4.3 7.0 0.00 0.03 0.00 66 989.7
20260504012501 55 176 4.3 6.1 0.00 0.00 0.00 65 989.7
20260504012002 56 170 4.3 5.2 0.00 0.00 0.00 64 989.7
20260504011502 57 180 3.5 6.1 0.00 0.00 0.00 62 989.7
20260504011002 57 188 3.5 5.2 0.00 0.00 0.00 61 989.8
20260504010502 58 182 4.3 5.2 0.00 0.00 0.00 59 989.7
20260504010002 58 180 4.3 5.2 0.00 0.00 0.00 58 989.7
20260504005502 59 176 4.3 5.2 0.00 0.00 0.00 57 989.8
20260504005002 59 180 4.3 7.0 0.00 0.00 0.00 56 989.9
20260504004502 60 162 5.2 7.0 0.00 0.00 0.00 55 990.0
20260504004002 61 173 3.5 7.0 0.00 0.00 0.00 54 990.1
20260504003501 61 163 4.3 7.0 0.00 0.00 0.00 54 990.1
20260504003002 62 160 3.5 6.1 0.00 0.00 0.00 51 990.2
20260504002502 63 190 3.5 7.0 0.00 0.00 0.00 50 990.2
20260504002002 63 168 3.5 6.1 0.00 0.00 0.00 49 990.3
20260504001502 64 163 2.6 5.2 0.00 0.00 0.00 48 990.3
20260504001002 64 189 3.5 7.0 0.00 0.00 0.00 44 990.3
20260504000502 64 212 2.6 7.0 0.00 0.00 0.00 47 990.2
20260504000002 64 211 2.6 7.0 0.00 0.00 0.00 46 990.3
20260503235502 64 207 3.5 6.1 0.00 0.00 0.00 46 990.3
20260503235001 65 180 4.3 6.1 0.00 0.00 0.00 47 990.4
20260503234502 66 179 5.2 8.7 0.00 0.00 0.00 48 990.5
20260503234002 67 202 4.3 7.8 0.00 0.00 0.00 41 990.6
20260503233502 67 221 4.3 11.3 0.00 0.00 0.00 39 990.7
20260503233001 68 209 3.5 7.8 0.00 0.00 0.00 39 991.0
20260503232502 68 189 6.1 16.5 0.00 0.00 0.00 41 991.1
20260503232002 68 193 3.5 7.8 0.00 0.00 0.00 41 991.1
20260503231502 68 307 3.5 7.0 0.00 0.00 0.00 39 991.1
20260503231002 68 316 2.6 6.1 0.00 0.00 0.00 38 991.2
20260503230502 68 276 2.6 7.0 0.00 0.00 0.00 39 991.2
20260503230002 69 255 4.3 10.4 0.00 0.00 0.00 38 991.3
20260503225501 69 221 3.5 9.6 0.00 0.00 0.00 38 991.4
20260503225002 69 329 3.5 7.8 0.00 0.00 0.00 38 991.4
20260503224502 69 281 3.5 11.3 0.00 0.00 0.00 38 991.4
20260503224002 68 258 2.6 7.8 0.00 0.00 0.00 38 991.4
20260503223502 68 239 5.2 12.2 0.00 0.00 0.00 37 991.4
20260503223002 69 225 5.2 11.3 0.00 0.00 0.00 37 991.5
20260503222502 69 292 4.3 11.3 0.00 0.00 0.00 38 991.6
20260503222002 69 286 5.2 10.4 0.00 0.00 0.00 37 991.6
20260503221502 69 257 5.2 11.3 0.00 0.00 0.00 38 991.7
20260503221002 69 212 5.2 13.9 0.00 0.00 0.00 38 991.8
20260503220502 69 190 4.3 9.6 0.00 0.00 0.00 40 991.9
20260503220002 69 211 7.0 12.2 0.00 0.00 0.00 38 991.9
20260503215503 69 211 5.2 10.4 0.00 0.00 0.00 39 992.0
20260503215003 69 311 5.2 15.6 0.00 0.00 0.00 37 992.1
20260503214501 69 204 6.1 11.3 0.00 0.00 0.00 37 992.2
20260503214003 69 243 5.2 11.3 0.00 0.00 0.00 37 992.3
20260503213502 69 235 4.3 8.7 0.00 0.00 0.00 37 992.4
20260503213002 69 213 6.1 14.8 0.00 0.00 0.00 37 992.5
20260503212501 69 262 6.1 15.6 0.00 0.00 0.00 37 992.6
20260503212002 69 193 7.0 16.5 0.00 0.00 0.00 36 992.7
20260503211502 69 279 4.3 9.6 0.00 0.00 0.00 36 992.8
20260503211002 69 224 5.2 13.9 0.00 0.00 0.00 38 993.0
20260503210502 69 195 5.2 10.4 0.00 0.00 0.00 37 993.0
20260503210002 69 217 6.1 11.3 0.00 0.00 0.00 38 993.1
20260503205506 69 202 6.1 13.9 0.00 0.00 0.00 37 993.2
20260503205003 69 177 6.1 10.4 0.00 0.00 0.00 38 993.2
20260503204501 69 327 4.3 9.6 0.00 0.00 0.00 37 993.3
20260503204002 69 220 5.2 13.0 0.00 0.00 0.00 38 993.3
20260503203502 69 196 7.0 13.0 0.00 0.00 0.00 37 993.4
20260503203002 69 175 5.2 13.9 0.00 0.00 0.00 37 993.6
20260503202502 69 191 6.1 17.4 0.00 0.00 0.00 38 993.7
20260503202002 68 248 4.3 8.7 0.00 0.00 0.00 39 993.8
20260503201501 68 197 6.1 13.0 0.00 0.00 0.00 37 993.9
20260503201002 68 199 7.0 13.0 0.00 0.00 0.00 36 994.0
20260503200502 68 319 5.2 11.3 0.00 0.00 0.00 37 994.1
20260503200002 68 218 6.1 10.4 0.00 0.00 0.00 38 994.3
20260503195502 68 190 4.3 10.4 0.00 0.00 0.00 38 994.4
20260503195002 67 188 5.2 8.7 0.00 0.00 0.00 38 994.4
20260503194502 67 192 6.1 14.8 0.00 0.00 0.00 37 994.4
20260503194002 68 224 7.0 15.6 0.00 0.00 0.00 39 994.6
20260503193502 67 217 5.2 13.0 0.00 0.00 0.00 39 994.7
20260503193002 67 201 6.1 12.2 0.00 0.00 0.00 38 994.8
20260503192501 67 270 4.3 10.4 0.00 0.00 0.00 39 994.8
20260503192002 67 233 6.1 15.6 0.00 0.00 0.00 38 994.9
20260503191501 67 220 6.1 13.9 0.00 0.00 0.00 38 995.0
20260503191002 66 200 5.2 10.4 0.00 0.00 0.00 39 995.0
20260503190502 66 121 4.3 8.7 0.00 0.00 0.00 39 995.0
20260503190002 66 241 7.8 12.2 0.00 0.00 0.00 38 995.1
20260503185502 66 220 6.1 14.8 0.00 0.00 0.00 39 995.2
20260503185002 66 316 5.2 11.3 0.00 0.00 0.00 40 995.2
20260503184502 66 192 6.1 12.2 0.00 0.00 0.00 39 995.3
20260503184003 66 181 6.1 13.9 0.00 0.00 0.00 41 995.3
20260503183502 65 189 5.2 10.4 0.00 0.00 0.00 41 995.4
20260503183001 65 191 7.0 17.4 0.00 0.00 0.00 39 995.5
20260503182502 65 273 4.3 13.9 0.00 0.00 0.00 39 995.6
20260503182002 65 277 5.2 12.2 0.00 0.00 0.00 39 995.7
20260503181502 65 288 4.3 11.3 0.00 0.00 0.00 40 995.8
20260503181002 65 198 6.1 17.4 0.00 0.00 0.00 38 995.8
20260503180502 65 312 4.3 9.6 0.00 0.00 0.00 40 995.9
20260503180002 65 194 6.1 12.2 0.00 0.00 0.00 40 995.9
20260503175501 65 178 5.2 13.0 0.00 0.00 0.00 43 996.0
20260503175002 64 200 7.0 13.9 0.00 0.00 0.00 39 996.0
20260503174502 64 197 7.0 16.5 0.00 0.00 0.00 40 996.2
20260503174002 64 264 6.1 15.6 0.00 0.00 0.00 41 996.2
20260503173502 64 214 4.3 12.2 0.00 0.00 0.00 41 996.4
20260503173001 63 285 3.5 8.7 0.00 0.00 0.00 41 996.4
20260503172502 63 241 6.1 13.0 0.00 0.00 0.00 41 996.4
20260503172002 63 310 4.3 11.3 0.00 0.00 0.00 40 996.4
20260503171502 63 208 7.0 13.9 0.00 0.00 0.00 39 996.5
20260503171002 63 263 4.3 13.9 0.00 0.00 0.00 40 996.6
20260503170502 63 207 5.2 12.2 0.00 0.00 0.00 40 996.7
20260503151002 59 263 5.2 8.7 0.00 0.01 0.00 44 997.4
20260503150502 59 286 5.2 12.2 0.00 0.01 0.00 45 997.5